When you browse on this site, cookies collect data to enhance your experience and personalize the content and advertising you see.
Visit our Privacy Policy to learn more. By continuing to use the site, you agree to this use of cookies and data.
EN

Hourly Weather Krasnye Ozera

Today, 25 September, Friday

Time Temperature Precipitation Wind Pressure Humidity
00:00 +12°C° 0 mm 3 mps 755 mmHg 60%
01:00 +12°C° 0 mm 3 mps 755 mmHg 60%
02:00 +12°C° 0 mm 2 mps 755 mmHg 60%
03:00 +12°C° 0 mm 2 mps 756 mmHg 60%
04:00 +12°C° 0 mm 2 mps 756 mmHg 60%
05:00 +12°C° 0 mm 2 mps 756 mmHg 60%
06:00 +12°C° 0 mm 2 mps 756 mmHg 60%
07:00 +12°C° 0 mm 3 mps 756 mmHg 56%
08:00 +13°C° 0 mm 3 mps 756 mmHg 53%
09:00 +15°C° 0 mm 4 mps 756 mmHg 48%
10:00 +17°C° 0 mm 4 mps 756 mmHg 45%
11:00 +18°C° 0 mm 4 mps 756 mmHg 42%
12:00 +19°C° 0 mm 5 mps 756 mmHg 39%
13:00 +19°C° 0 mm 4 mps 756 mmHg 39%
14:00 +20°C° 0 mm 4 mps 756 mmHg 38%
15:00 +20°C° 0 mm 4 mps 756 mmHg 38%
16:00 +18°C° 0 mm 4 mps 755 mmHg 42%
17:00 +17°C° 0 mm 3 mps 755 mmHg 46%
18:00 +14°C° 0 mm 3 mps 755 mmHg 50%
19:00 +13°C° 0 mm 3 mps 755 mmHg 50%
20:00 +13°C° 0 mm 3 mps 755 mmHg 50%
21:00 +12°C° 0 mm 3 mps 756 mmHg 50%
22:00 +12°C° 0 mm 3 mps 756 mmHg 51%
23:00 +11°C° 0 mm 3 mps 755 mmHg 52%

Tomorrow, 26 September, Saturday

Time Temperature Precipitation Wind Pressure Humidity
00:00 +11°C° 0 mm 3 mps 755 mmHg 53%
01:00 +10°C° 0 mm 3 mps 755 mmHg 54%
02:00 +10°C° 0 mm 3 mps 756 mmHg 55%
03:00 +10°C° 0 mm 3 mps 756 mmHg 57%
04:00 +10°C° 0 mm 3 mps 756 mmHg 58%
05:00 +10°C° 0 mm 3 mps 756 mmHg 58%
06:00 +9°C° 0 mm 3 mps 756 mmHg 59%
07:00 +11°C° 0 mm 4 mps 756 mmHg 55%
08:00 +13°C° 0 mm 4 mps 756 mmHg 50%
09:00 +15°C° 0 mm 4 mps 756 mmHg 46%
10:00 +16°C° 0 mm 5 mps 756 mmHg 42%
11:00 +19°C° 0 mm 5 mps 756 mmHg 39%
12:00 +21°C° 0 mm 5 mps 756 mmHg 35%
13:00 +21°C° 0 mm 5 mps 756 mmHg 35%
14:00 +21°C° 0 mm 5 mps 756 mmHg 35%
15:00 +21°C° 0 mm 5 mps 756 mmHg 35%
16:00 +19°C° 0 mm 5 mps 756 mmHg 39%
17:00 +18°C° 0 mm 4 mps 756 mmHg 43%
18:00 +15°C° 0 mm 4 mps 756 mmHg 47%
19:00 +14°C° 0 mm 4 mps 756 mmHg 47%
20:00 +13°C° 0 mm 4 mps 757 mmHg 48%
21:00 +13°C° 0 mm 4 mps 757 mmHg 48%
22:00 +12°C° 0 mm 4 mps 757 mmHg 49%
23:00 +11°C° 0 mm 4 mps 758 mmHg 51%

Day after tomorrow, 27 September, Sunday

Time Temperature Precipitation Wind Pressure Humidity
00:00 +11°C° 0 mm 3 mps 758 mmHg 52%
01:00 +10°C° 0 mm 3 mps 758 mmHg 54%
02:00 +10°C° 0 mm 3 mps 758 mmHg 56%
03:00 +9°C° 0 mm 3 mps 759 mmHg 57%
04:00 +9°C° 0 mm 3 mps 759 mmHg 59%
05:00 +8°C° 0 mm 3 mps 759 mmHg 60%
06:00 +8°C° 0 mm 3 mps 759 mmHg 62%
07:00 +10°C° 0 mm 4 mps 759 mmHg 57%
08:00 +12°C° 0 mm 4 mps 759 mmHg 52%
09:00 +14°C° 0 mm 5 mps 759 mmHg 46%
10:00 +15°C° 0 mm 5 mps 759 mmHg 42%
11:00 +16°C° 0 mm 5 mps 759 mmHg 38%
12:00 +19°C° 0 mm 5 mps 759 mmHg 34%
13:00 +19°C° 0 mm 5 mps 759 mmHg 33%
14:00 +19°C° 0 mm 5 mps 759 mmHg 33%
15:00 +20°C° 0 mm 5 mps 759 mmHg 32%
16:00 +18°C° 0 mm 4 mps 759 mmHg 36%
17:00 +15°C° 0 mm 4 mps 759 mmHg 41%
18:00 +14°C° 0 mm 3 mps 759 mmHg 45%
19:00 +13°C° 0 mm 3 mps 759 mmHg 46%
20:00 +12°C° 0 mm 3 mps 759 mmHg 47%
21:00 +12°C° 0 mm 4 mps 759 mmHg 48%
22:00 +11°C° 0 mm 3 mps 759 mmHg 49%
23:00 +11°C° 0 mm 3 mps 759 mmHg 49%

28 September, Monday

Time Temperature Precipitation Wind Pressure Humidity
00:00 +10°C° 0 mm 3 mps 760 mmHg 49%
01:00 +10°C° 0 mm 3 mps 760 mmHg 50%
02:00 +9°C° 0 mm 3 mps 760 mmHg 51%
03:00 +9°C° 0 mm 3 mps 760 mmHg 52%
04:00 +8°C° 0 mm 3 mps 760 mmHg 53%
05:00 +8°C° 0 mm 3 mps 760 mmHg 54%
06:00 +8°C° 0 mm 3 mps 760 mmHg 55%
07:00 +10°C° 0 mm 4 mps 760 mmHg 50%
08:00 +11°C° 0 mm 4 mps 760 mmHg 46%
09:00 +13°C° 0 mm 5 mps 760 mmHg 41%
10:00 +15°C° 0 mm 5 mps 760 mmHg 38%
11:00 +16°C° 0 mm 5 mps 760 mmHg 34%
12:00 +19°C° 0 mm 6 mps 759 mmHg 31%
13:00 +19°C° 0 mm 6 mps 759 mmHg 31%
14:00 +19°C° 0 mm 5 mps 759 mmHg 30%
15:00 +19°C° 0 mm 5 mps 759 mmHg 30%
16:00 +18°C° 0 mm 4 mps 759 mmHg 33%
17:00 +17°C° 0 mm 4 mps 759 mmHg 35%
18:00 +16°C° 0 mm 3 mps 759 mmHg 38%
19:00 +14°C° 0 mm 3 mps 759 mmHg 39%
20:00 +13°C° 0 mm 3 mps 759 mmHg 41%
21:00 +12°C° 0 mm 3 mps 759 mmHg 42%
22:00 +12°C° 0 mm 3 mps 759 mmHg 43%
23:00 +11°C° 0 mm 3 mps 759 mmHg 43%

29 September, Tuesday

Time Temperature Precipitation Wind Pressure Humidity
00:00 +11°C° 0 mm 3 mps 759 mmHg 44%
01:00 +11°C° 0 mm 3 mps 759 mmHg 45%
02:00 +10°C° 0 mm 3 mps 759 mmHg 45%
03:00 +10°C° 0 mm 3 mps 759 mmHg 46%
04:00 +10°C° 0 mm 3 mps 759 mmHg 46%
05:00 +10°C° 0 mm 3 mps 759 mmHg 46%
06:00 +10°C° 0 mm 3 mps 759 mmHg 46%
07:00 +11°C° 0 mm 4 mps 759 mmHg 44%
08:00 +12°C° 0 mm 4 mps 759 mmHg 41%
09:00 +14°C° 0 mm 5 mps 759 mmHg 38%
10:00 +15°C° 0 mm 5 mps 759 mmHg 36%
11:00 +16°C° 0 mm 6 mps 758 mmHg 33%
12:00 +17°C° 0 mm 6 mps 758 mmHg 30%
13:00 +17°C° 0 mm 6 mps 758 mmHg 30%
14:00 +17°C° 0 mm 6 mps 758 mmHg 30%
15:00 +19°C° 0 mm 5 mps 757 mmHg 29%
16:00 +16°C° 0 mm 5 mps 757 mmHg 32%
17:00 +15°C° 0 mm 4 mps 757 mmHg 35%
18:00 +14°C° 0 mm 3 mps 757 mmHg 38%
19:00 +13°C° 0 mm 3 mps 757 mmHg 39%
20:00 +13°C° 0 mm 3 mps 757 mmHg 40%
21:00 +12°C° 0 mm 4 mps 757 mmHg 41%
22:00 +12°C° 0 mm 4 mps 757 mmHg 42%
23:00 +12°C° 0 mm 4 mps 757 mmHg 44%

30 September, Wednesday

Time Temperature Precipitation Wind Pressure Humidity
00:00 +12°C° 0 mm 4 mps 757 mmHg 46%
01:00 +12°C° 0 mm 4 mps 757 mmHg 46%
02:00 +12°C° 0 mm 4 mps 757 mmHg 47%
03:00 +12°C° 0 mm 4 mps 756 mmHg 47%
04:00 +11°C° 0 mm 4 mps 756 mmHg 48%
05:00 +11°C° 0 mm 4 mps 756 mmHg 49%
06:00 +11°C° 0 mm 4 mps 756 mmHg 50%
07:00 +12°C° 0 mm 5 mps 756 mmHg 47%
08:00 +13°C° 0 mm 5 mps 756 mmHg 45%
09:00 +15°C° 0 mm 5 mps 756 mmHg 43%
10:00 +16°C° 0 mm 6 mps 756 mmHg 40%
11:00 +17°C° 0 mm 6 mps 756 mmHg 36%
12:00 +20°C° 0 mm 6 mps 756 mmHg 33%
13:00 +20°C° 0 mm 6 mps 756 mmHg 33%
14:00 +20°C° 0 mm 6 mps 756 mmHg 33%
15:00 +20°C° 0 mm 6 mps 756 mmHg 33%
16:00 +19°C° 0 mm 5 mps 756 mmHg 37%
17:00 +17°C° 0 mm 5 mps 756 mmHg 40%
18:00 +15°C° 0 mm 4 mps 756 mmHg 44%
19:00 +15°C° 0 mm 4 mps 756 mmHg 46%
20:00 +14°C° 0 mm 4 mps 756 mmHg 47%
21:00 +14°C° 0 mm 4 mps 756 mmHg 48%
22:00 +13°C° 0 mm 4 mps 756 mmHg 49%
23:00 +13°C° 0 mm 4 mps 756 mmHg 49%
Show more